WetterOnline ( https://www.wetteronline.de )

Wetter aktuell Greiz

Aktuelles Wetter: Plauen (389m)

6-stündlich | Neueste Meldungen
Ortszeit Temperatur Wetter
So, 04.12. 13:00 0.6° C Nebel
So, 04.12. 7:00 -0.6° C bedeckt
So, 04.12. 1:00 -0.7° C bedeckt
Sa, 03.12. 19:00 -0.7° C bedeckt
Sa, 03.12. 13:00 -0.5° C bedeckt
Sa, 03.12. 7:00 -1.3° C bedeckt
Sa, 03.12. 1:00 -0.9° C leichter Schneefall
Fr, 02.12. 19:00 -0.6° C leichter Schneefall
Ortszeit Temperatur Wetter
So, 04.12. 16:00 0.3° C Nebel
So, 04.12. 15:50 0.3° C Nebel
So, 04.12. 15:40 0.3° C Nebel
So, 04.12. 15:30 0.3° C Nebel
So, 04.12. 15:20 0.3° C Nebel
So, 04.12. 15:10 0.3° C Nebel
So, 04.12. 15:00 0.4° C Nebel
So, 04.12. 14:30 0.4° C Nebel
So, 04.12. 14:00 0.4° C Nebel
So, 04.12. 13:30 0.4° C Nebel
So, 04.12. 13:00 0.6° C Nebel
Ortszeit Relative Feuchte Sichtweite
So, 04.12. 13:00 97% 1.2 km
So, 04.12. 7:00 98% 1.6 km
So, 04.12. 1:00 95% 5.0 km
Sa, 03.12. 19:00 97% 1.9 km
Sa, 03.12. 13:00 93% 3.9 km
Sa, 03.12. 7:00 95% 3.8 km
Sa, 03.12. 1:00 97% 2.3 km
Fr, 02.12. 19:00 97% 1.1 km
Ortszeit Relative Feuchte Sichtweite
So, 04.12. 16:00 99% 0.2 km
So, 04.12. 15:50 99% -
So, 04.12. 15:40 99% -
So, 04.12. 15:30 99% 0.3 km
So, 04.12. 15:20 99% -
So, 04.12. 15:10 99% -
So, 04.12. 15:00 99% 0.4 km
So, 04.12. 14:30 98% 0.5 km
So, 04.12. 14:00 98% 0.3 km
So, 04.12. 13:30 97% 0.4 km
So, 04.12. 13:00 97% 1.2 km
Ortszeit Niederschlagsmenge Niederschlagsart
So, 04.12. 13:00 0.0 l/m2 in 6 Std. -
So, 04.12. 7:00 0.0 l/m2 in 12 Std. -
So, 04.12. 1:00 0.0 l/m2 in 6 Std. -
Sa, 03.12. 19:00 0.1 l/m2 in 12 Std. -
Sa, 03.12. 13:00 0.1 l/m2 in 6 Std. Schnee
Sa, 03.12. 7:00 4 l/m2 in 12 Std. Schnee
Sa, 03.12. 1:00 4 l/m2 in 6 Std. Schnee
Fr, 02.12. 19:00 2 l/m2 in 12 Std. Schnee, Niederschlag
Ortszeit Niederschlagsmenge Niederschlagsart
So, 04.12. 16:00 0.0 l/m2 in 1 Std. -
So, 04.12. 15:50 keine Meldung -
So, 04.12. 15:40 keine Meldung -
So, 04.12. 15:30 0.0 l/m2 in 30 Min -
So, 04.12. 15:20 keine Meldung -
So, 04.12. 15:10 keine Meldung -
So, 04.12. 15:00 0.0 l/m2 in 1 Std. -
So, 04.12. 14:30 0.0 l/m2 in 30 Min -
So, 04.12. 14:00 0.0 l/m2 in 1 Std. -
So, 04.12. 13:30 0.0 l/m2 in 30 Min -
So, 04.12. 13:00 0.0 l/m2 in 1 Std. -
Ortszeit Stärke Spitze Richtung
km/h Bft. km/h Grad Sektor
So, 04.12. 13:00 9 2 15 20° N
So, 04.12. 7:00 6 1 11 30° NO
So, 04.12. 1:00 4 1 7 30° NO
Sa, 03.12. 19:00 4 1 11 10° N
Sa, 03.12. 13:00 6 1 11 20° N
Sa, 03.12. 7:00 4 1 11 10° N
Sa, 03.12. 1:00 7 2 14 20° N
Fr, 02.12. 19:00 7 2 18 20° N
Ortszeit Stärke Spitze Richtung
km/h Bft. km/h Grad Sektor
So, 04.12. 16:00 7 2 17 20° N
So, 04.12. 15:50 7 2 - 20° N
So, 04.12. 15:40 7 2 - 10° N
So, 04.12. 15:30 7 2 18 30° NO
So, 04.12. 15:20 7 2 - 30° NO
So, 04.12. 15:10 11 2 - 20° N
So, 04.12. 15:00 7 2 18 10° N
So, 04.12. 14:30 7 2 18 20° N
So, 04.12. 14:00 7 2 17 20° N
So, 04.12. 13:30 7 2 18 30° NO
So, 04.12. 13:00 9 2 15 20° N
Ortszeit Untergrenze Bedeckung Gattung
total tief tief mittel hoch
So, 04.12. 13:00 30 m 8/8 8/8 - - -
So, 04.12. 7:00 30 m 8/8 8/8 - - -
So, 04.12. 1:00 390 m 8/8 8/8 - - -
Sa, 03.12. 19:00 60 m 8/8 8/8 - - -
Sa, 03.12. 13:00 90 m 8/8 8/8 - - -
Sa, 03.12. 7:00 90 m 8/8 8/8 - - -
Sa, 03.12. 1:00 90 m 7/8 7/8 - - -
Fr, 02.12. 19:00 120 m 7/8 7/8 - - -
Ortszeit Bedeckungsgrad in Achtel und Wolkenuntergrenze
So, 04.12. 16:00 8(<30m)
So, 04.12. 15:50 8(<30m)
So, 04.12. 15:40 8
So, 04.12. 15:30 8(<30m)
So, 04.12. 15:20 8(<30m)
So, 04.12. 15:10 8
So, 04.12. 15:00 8(<30m)
So, 04.12. 14:30 8(<30m)
So, 04.12. 14:00 8(<30m)
So, 04.12. 13:30 8(<30m)
So, 04.12. 13:00 8(30m)
Ortszeit Luftdruck NN (hPa) Tendenz (hPa in 3 Std.)
So, 04.12. 13:00 1017 - 0,6
So, 04.12. 7:00 1018 - 0,5
So, 04.12. 1:00 1019 - 0,8
Sa, 03.12. 19:00 1020 - 0,1
Sa, 03.12. 13:00 1021 - 1,1
Sa, 03.12. 7:00 1022 - 0,1
Sa, 03.12. 1:00 1023 0,0
Fr, 02.12. 19:00 1023 + 0,4
Ortszeit Luftdruck NN (hPa) Tendenz (hPa in 3 Std.)
So, 04.12. 16:00 1016 - 1,1
So, 04.12. 15:50 1016 keine Meldung
So, 04.12. 15:40 1017 keine Meldung
So, 04.12. 15:30 1017 - 1,3
So, 04.12. 15:20 1017 keine Meldung
So, 04.12. 15:10 1017 keine Meldung
So, 04.12. 15:00 1017 - 1,1
So, 04.12. 14:30 1017 - 1,4
So, 04.12. 14:00 1017 - 1,1
So, 04.12. 13:30 1017 - 1,6
So, 04.12. 13:00 1017 - 0,6
Ortszeit Schneehöhe (cm)
So, 04.12. 13:00 4
So, 04.12. 7:00 5
So, 04.12. 1:00 6
Sa, 03.12. 19:00 6
Sa, 03.12. 13:00 7
Sa, 03.12. 7:00 8
Sa, 03.12. 1:00 8
Fr, 02.12. 19:00 5
Ortszeit Schneehöhe (cm)
So, 04.12. 16:00 3
So, 04.12. 15:50 3
So, 04.12. 15:40 3
So, 04.12. 15:30 3
So, 04.12. 15:20 3
So, 04.12. 15:10 3
So, 04.12. 15:00 3
So, 04.12. 14:30 3
So, 04.12. 14:00 3
So, 04.12. 13:30 4
So, 04.12. 13:00 4
Link zu dieser Seite / Seite empfehlen

Das Wetter in ...